Home   Weather   Chattanooga   Past weeks
Flag for USA

Past Weather in Chattanooga, Tennessee, USA — Yesterday and Last 2 Weeks

Now
57 °F

Partly cloudy.


Feels Like: 57 °F
Forecast: 57 / 45 °F
Wind: 3 mph from South

Location: Lovell Field

Current Time: Mar 20, 2019 at 9:57:17 pm

Latest Report: Mar 20, 2019 at 8:53 pm


Visibility: 10 mi

Pressure: 30.06 "Hg

Humidity: 33%

Dew Point: 28 °F

Location of ChattanoogaLocation

Past Weather in Chattanooga — Graph

°F

Chattanooga Temperature Yesterday

Maximum temperature yesterday: 58 °F (at 5:53 pm)
Minimum temperature yesterday: 37 °F (at 7:53 am)
Average temperature yesterday: 47 °F

High & Low Weather Summary for the Past Weeks

 TemperatureHumidityPressure
High74 °F (Mar 10, 5:53 pm)94% (Mar 14, 10:33 pm)30.50 "Hg (Mar 14, 10:33 pm)
Low24 °F (Mar 6, 5:53 am)16% (Mar 18, 3:42 pm)29.86 "Hg (Mar 14, 6:53 pm)
Average50 °F55%30.21 "Hg
* Reported Mar 5 6:53 pm — Mar 20 7:53 pm, Chattanooga. Weather by CustomWeather, © 2019

Note: Actual official high and low records may vary slightly from our data, if they occured in-between our weather recording intervals... More about our weather records

Advertising

Chattanooga Weather History for the Previous 24 Hours

Scroll right to see more
 ConditionsComfort  
Time TempWeatherWind HumidityBarometerVisibility
7:53 pm
Wed, Mar 20
61 °FPassing clouds.3 mph24%30.06 "Hg10 mi
6:53 pm63 °FPassing clouds.5 mph23%30.06 "Hg10 mi
5:53 pm63 °FPassing clouds.5 mph22%30.08 "Hg10 mi
4:53 pm63 °FPassing clouds.3 mph20%30.10 "Hg10 mi
3:53 pm62 °FPassing clouds.No wind20%30.12 "Hg10 mi
2:53 pm61 °FPassing clouds.6 mph20%30.17 "Hg10 mi
1:53 pm59 °FPassing clouds.No wind23%30.21 "Hg10 mi
12:53 pm57 °FSunny.3 mph27%30.25 "Hg10 mi
11:53 am55 °FPassing clouds.6 mph33%30.28 "Hg10 mi
10:53 am48 °FScattered clouds.3 mph44%30.30 "Hg10 mi
9:53 am42 °FPassing clouds.No wind65%30.31 "Hg10 mi
8:53 am35 °FPassing clouds.No wind82%30.31 "Hg10 mi
7:53 am32 °FPassing clouds.No wind85%30.30 "Hg10 mi
6:53 am32 °FClear.No wind85%30.29 "Hg10 mi
5:53 am34 °FClear.No wind79%30.27 "Hg10 mi
4:53 am35 °FClear.N/A78%30.26 "Hg10 mi
3:53 am36 °FClear.No wind75%30.27 "Hg10 mi
2:53 am37 °FClear.No wind73%30.29 "Hg10 mi
1:53 am37 °FClear.No wind76%30.30 "Hg10 mi
12:53 am39 °FClear.No wind67%30.30 "Hg10 mi
11:53 pm
Tue, Mar 19
42 °FClear.No wind68%30.31 "Hg10 mi
10:53 pm44 °FClear.No wind53%30.31 "Hg10 mi
9:53 pm46 °FClear.No wind51%30.30 "Hg10 mi
Weather by CustomWeather, © 2019

See weather overview